CW4482 Weather Reports


Display with metric or nautical units.
time (UTC)temp
F
wind
direction
speed
MPH
gust
MPH
rain 1hr
in
rain 24hr
in
rain mn
in
humidity
%
barometer
mb
20260510224522 87 142 0.0 0.0 0.00 0.00 0.00 73 1012.3
20260510223026 88 169 0.0 0.0 0.00 0.00 0.00 72 1012.4
20260510221530 88 217 0.0 0.0 0.00 0.00 0.00 73 1012.5
20260510220035 89 205 0.0 0.0 0.00 0.00 0.00 69 1012.8
20260510214532 90 91 0.0 0.0 0.00 0.00 0.00 70 1012.9
20260510213016 90 202 0.0 0.0 0.00 0.00 0.00 72 1013.0
20260510211515 89 185 0.0 0.0 0.00 0.00 0.00 74 1013.0
20260510210012 90 176 0.0 0.0 0.00 0.00 0.00 73 1012.9
20260510204518 91 140 0.0 0.0 0.00 0.01 0.00 70 1012.9
20260510203021 90 186 0.0 0.0 0.00 0.01 0.00 70 1012.7
20260510201523 90 192 0.0 0.0 0.00 0.01 0.00 72 1012.5
20260510200027 90 192 0.0 0.0 0.00 0.01 0.00 72 1012.5
20260510194549 91 173 0.0 0.0 0.00 0.01 0.00 71 1012.4
20260510193025 90 155 0.0 0.0 0.00 0.01 0.00 68 1012.3
20260510191515 90 182 0.0 0.0 0.00 0.01 0.00 71 1012.3
20260510190030 90 159 0.0 0.0 0.00 0.01 0.00 67 1012.5
20260510184516 90 173 0.0 0.0 0.00 0.01 0.00 72 1012.4
20260510183021 88 153 0.0 0.0 0.00 0.01 0.00 73 1012.4
20260510181521 88 128 0.0 0.0 0.00 0.01 0.00 71 1012.7
20260510180025 87 129 0.0 0.0 0.00 0.01 0.00 75 1012.9
20260510174546 87 157 0.0 0.0 0.00 0.01 0.00 76 1013.0
20260510173026 85 158 0.0 0.0 0.00 0.01 0.00 77 1013.0
20260510171532 86 50 0.0 0.0 0.00 0.01 0.00 78 1013.5
20260510170011 85 27 0.0 0.0 0.00 0.01 0.00 78 1013.8
20260510164536 84 36 0.0 0.0 0.00 0.01 0.00 80 1013.9
20260510163026 82 105 0.0 0.0 0.00 0.01 0.00 83 1013.9
20260510161513 82 109 0.0 0.0 0.00 0.01 0.00 84 1014.1
20260510160012 81 22 0.0 0.0 0.00 0.01 0.00 85 1014.2
20260510154513 80 20 0.0 0.0 0.00 0.01 0.00 85 1014.3
20260510153034 80 23 0.0 0.0 0.00 0.01 0.00 88 1014.4
20260510151558 79 25 0.0 0.0 0.00 0.01 0.00 88 1014.6
20260510150028 78 18 0.0 0.0 0.00 0.01 0.00 90 1014.6
20260510144529 78 24 0.0 0.0 0.00 0.01 0.00 90 1014.5
20260510143013 77 28 0.0 0.0 0.00 0.01 0.00 93 1014.5
20260510141537 77 9 0.0 0.0 0.00 0.01 0.00 94 1014.5
20260510140014 76 14 0.0 0.0 0.00 0.01 0.00 95 1014.5
20260510134517 76 221 0.0 0.0 0.00 0.01 0.00 96 1014.4
20260510133042 75 201 0.0 0.0 0.00 0.01 0.00 96 1014.2
20260510131524 75 193 0.0 0.0 0.00 0.01 0.00 96 1013.9
20260510130020 74 193 0.0 0.0 0.00 0.01 0.00 96 1013.7
20260510124524 74 193 0.0 0.0 0.00 0.01 0.00 96 1013.5
20260510123024 74 193 0.0 0.0 0.00 0.01 0.00 96 1013.2
20260510121524 73 193 0.0 0.0 0.00 0.01 0.00 96 1012.8
20260510120014 73 193 0.0 0.0 0.00 0.01 0.00 95 1012.6
20260510114520 73 193 0.0 0.0 0.00 0.01 0.00 95 1012.3
20260510113018 73 193 0.0 0.0 0.00 0.01 0.00 95 1011.7
20260510111521 73 193 0.0 0.0 0.00 0.01 0.00 95 1011.4
20260510110024 73 193 0.0 0.0 0.00 0.01 0.00 95 1011.2
20260510104530 73 193 0.0 0.0 0.00 0.01 0.00 95 1011.0
20260510103024 73 193 0.0 0.0 0.00 0.01 0.00 95 1011.0
20260510101528 73 193 0.0 0.0 0.00 0.01 0.00 95 1011.0
20260510100035 72 193 0.0 0.0 0.00 0.01 0.00 95 1010.9
20260510094531 72 193 0.0 0.0 0.00 0.01 0.00 95 1010.8
20260510093016 72 193 0.0 0.0 0.00 0.01 0.00 94 1010.6
20260510091524 72 193 0.0 0.0 0.00 0.01 0.00 94 1010.5
20260510090021 72 193 0.0 0.0 0.00 0.01 0.00 94 1010.4
20260510084545 72 194 0.0 0.0 0.00 0.01 0.00 93 1010.6
20260510083026 72 193 0.0 0.0 0.00 0.01 0.00 93 1010.7
20260510081526 72 193 0.0 0.0 0.00 0.01 0.00 93 1010.7
20260510080047 73 193 0.0 0.0 0.00 0.01 0.00 93 1010.6
20260510074530 73 193 0.0 0.0 0.00 0.01 0.00 93 1010.7
20260510073029 73 193 0.0 0.0 0.00 0.01 0.00 93 1010.6
20260510071513 74 193 0.0 0.0 0.00 0.01 0.00 92 1010.6
20260510070017 74 193 0.0 0.0 0.00 0.01 0.00 93 1010.8
20260510064516 74 193 0.0 0.0 0.00 0.06 0.00 92 1010.6
20260510063020 74 163 0.0 0.0 0.00 0.06 0.00 92 1010.6
20260510061523 74 158 0.0 0.0 0.00 0.06 0.00 93 1010.6
20260510060030 74 165 0.0 0.0 0.00 0.06 0.00 92 1010.8
20260510054528 74 165 0.0 0.0 0.00 0.06 0.00 92 1010.9
20260510053011 74 165 0.0 0.0 0.00 0.06 0.00 92 1010.9
20260510051535 74 159 0.0 0.0 0.00 0.06 0.00 92 1010.8
20260510050055 74 162 0.0 0.0 0.00 0.06 0.00 91 1010.9
20260510044537 74 167 0.0 0.0 0.00 0.06 0.06 91 1011.1
20260510043016 73 165 0.0 0.0 0.00 0.06 0.06 90 1011.3
20260510041521 74 179 0.0 0.0 0.00 0.06 0.06 89 1011.6
20260510040016 74 179 0.0 0.0 0.00 0.06 0.06 88 1011.7
20260510034522 74 179 0.0 0.0 0.00 0.06 0.06 87 1011.6
20260510033024 74 179 0.0 0.0 0.00 0.06 0.06 86 1011.4
20260510031529 74 178 0.0 0.0 0.00 0.06 0.06 84 1011.4
20260510030027 75 179 0.0 0.0 0.00 0.06 0.06 82 1011.5
20260510024518 75 180 0.0 0.0 0.00 0.06 0.06 79 1011.5
20260510023015 76 5 0.0 0.0 0.00 0.06 0.06 78 1011.5
20260510021519 77 25 0.0 0.0 0.00 0.06 0.06 79 1010.9
20260510020023 79 33 0.0 0.0 0.00 0.06 0.06 86 1010.7
20260510014519 80 161 0.0 0.0 0.00 0.06 0.06 85 1009.9
20260510013024 81 154 0.0 0.0 0.00 0.06 0.06 81 1009.2
20260510011520 81 171 0.0 0.0 0.00 0.06 0.06 81 1008.7
20260510010022 82 171 0.0 0.0 0.00 0.06 0.06 78 1008.4
20260510004527 82 172 0.0 0.0 0.00 0.06 0.06 78 1008.2
20260510003034 82 265 0.0 0.0 0.00 0.06 0.06 78 1008.1
20260510001530 82 277 0.0 0.0 0.00 0.06 0.06 81 1007.9
20260510000014 83 277 0.0 0.0 0.00 0.06 0.06 83 1007.7
20260509234517 84 277 0.0 0.0 0.00 0.06 0.06 83 1007.5
20260509233017 84 277 0.0 0.0 0.00 0.06 0.06 81 1007.7
20260509231522 83 277 0.0 0.0 0.00 0.06 0.06 83 1007.6
20260509230026 83 277 0.0 0.0 0.00 0.06 0.06 83 1007.6